Location: Bemmer
(51.5498°N, 5.6249°E)
Time: 17:13:21
(UTC+00:00)

SPOT 3 Rocket - Pass Details

Date: 03 March 2021
Orbit: 778 x 795 km, 98.7° (Epoch: 13 April)

Event Time Altitude Azimuth Distance (km) Brightness Sun altitude
Exits shadow 20:18:41 68° 219° (SW) 854 3.6 -27.6°
Maximum altitude 20:19:06 72° 256° (WSW) 836 3.7 -27.7°
Drops below altitude 10° 20:24:21 10° 341° (NNW) 2,376 6.6 -28.4°
Sets 20:26:43 0° 344° (NNW) 3,311 7.4 -28.7°
